Погода в Казачинском

Россия / Иркутская область     56°16′07″N   107°34′32″E
темп.,
°C
ветер,
м/с
пор.,
м/с
влажн.,
%
обл.,
%
осадки,
мм/ч
давл.,
гПа
погр.,
м
6 марта, сб
сб623:00−14ююв31084100 0.0 1027312
02:00−17ю2488100 0.0 1026100
05:00−16ю3786100 0.0 1023176
08:00−14ююв4895100 0.3 1023277
11:00−11ююв4794100 1.6 1022356
14:00−4юз3779100 1.9 10201111
17:00−4ююз2585100 0.4 1020746
20:00−8ююз3590100 0.8 1022123
7 марта, вс
вс723:00−11ююз239196 0.0 102232
02:00−10ю229198 0.0 102141
05:00−10ююв3695100 0.0 1019202
08:00−8ююв3893100 0.2 1017282
11:00−3ю51183100 0.1 1014809
14:000ююз41074100 0.1 10121752
17:00−1юз31085100 0.1 10121217
20:00−5ююз2788100 0.1 1012152
8 марта, пн
пн823:00−5юз31385100 0.0 1012565
02:00−6зюз3984100 0.0 1014248
05:00−8зюз2491100 0.1 1015148
08:00−11зюз3118461 0.1 1018430
11:00−9з5107628 0.0 10201210
14:00−8з487662 0.1 10221274
17:00−8з3779100 0.0 10241087
20:00−14ююз228970 0.1 102824
9 марта, вт
вт923:00−16ю23924 0.0 102927
02:00−18ю23922 0.0 102830
05:00−17ю379368 0.0 1026180
08:00−14ю4138584 0.0 1022420
11:00−9ю41179100 0.1 1018440
14:00−3ююв4880100 0.1 1014525
17:00−1ююз3983100 0.1 10141166
20:00−4юз31186100 0.3 1017508
10 марта, ср
ср1023:00−8з4138067 0.2 1021605
02:00−13ююз228841 0.2 102529
05:00−15ююз239183 0.0 102832
08:00−16ююз229143 0.0 103041
11:00−10ююв358523 0.0 1028436
14:00−7ю478352 0.0 1025691
17:00−5ю598494 0.0 1022668
20:00−8ю389083 0.0 1022193